| time (UTC) | temp F | wind direction | speed MPH | gust MPH | rain 1hr in | rain 24hr in | rain mn in | humidity % | barometer mb |
| 20260902031202 | 63 | 355 | 3.0 | 9.0 | 0.00 | 0.00 | 0.00 | 48 | 1010.0 |
| 20260902030227 | 64 | 346 | 0.0 | 0.0 | 0.00 | 0.00 | 0.00 | 48 | 1009.8 |
| 20260902025205 | 64 | 346 | 1.0 | 8.0 | 0.00 | 0.00 | 0.00 | 47 | 1009.8 |
| 20260902023004 | 66 | 345 | 1.0 | 9.0 | 0.00 | 0.00 | 0.00 | 45 | 1009.7 |
| 20260902022024 | 67 | 340 | 1.0 | 0.0 | 0.00 | 0.00 | 0.00 | 43 | 1009.7 |
| 20260902021021 | 67 | 340 | 0.0 | 1.0 | 0.00 | 0.00 | 0.00 | 42 | 1009.6 |
| 20260902020039 | 68 | 339 | 0.0 | 4.0 | 0.00 | 0.00 | 0.00 | 41 | 1009.7 |
| 20260902015006 | 69 | 339 | 0.0 | 1.0 | 0.00 | 0.00 | 0.00 | 40 | 1009.7 |
| 20260902013938 | 70 | 335 | 0.0 | 0.0 | 0.00 | 0.00 | 0.00 | 38 | 1009.6 |
| 20260902012944 | 71 | 333 | 0.0 | 9.0 | 0.00 | 0.00 | 0.00 | 37 | 1009.7 |
| 20260902011918 | 72 | 334 | 1.0 | 8.0 | 0.00 | 0.00 | 0.00 | 35 | 1009.8 |
| 20260902010928 | 73 | 334 | 3.0 | 13.0 | 0.00 | 0.00 | 0.00 | 34 | 1009.8 |
| 20260902005938 | 73 | 0 | 4.0 | 12.0 | 0.00 | 0.00 | 0.00 | 34 | 1009.8 |
| 20260902004937 | 75 | 331 | 3.0 | 11.0 | 0.00 | 0.00 | 0.00 | 32 | 1009.8 |
| 20260902003958 | 76 | 0 | 1.0 | 9.0 | 0.00 | 0.00 | 0.00 | 31 | 1009.8 |
| 20260902002934 | 77 | 272 | 1.0 | 11.0 | 0.00 | 0.00 | 0.00 | 31 | 1009.9 |
| 20260902001902 | 77 | 0 | 4.0 | 0.0 | 0.00 | 0.00 | 0.00 | 28 | 1009.8 |
| 20260902000914 | 77 | 261 | 4.0 | 12.0 | 0.00 | 0.00 | 0.00 | 29 | 1009.7 |
| 20260901235905 | 77 | 0 | 4.0 | 12.0 | 0.00 | 0.00 | 0.00 | 29 | 1009.8 |
| 20260901194048 | 75 | 227 | 1.0 | 1.0 | 0.00 | 0.04 | 0.00 | 46 | 1013.0 |
| 20260901193110 | 74 | 222 | 0.0 | 0.0 | 0.00 | 0.04 | 0.00 | 45 | 1013.2 |
| 20260901192048 | 74 | 221 | 0.0 | 0.0 | 0.00 | 0.04 | 0.00 | 46 | 1013.4 |
| 20260901191022 | 75 | 222 | 0.0 | 0.0 | 0.00 | 0.05 | 0.00 | 47 | 1013.6 |
| 20260901190024 | 75 | 222 | 1.0 | 5.0 | 0.00 | 0.09 | 0.00 | 46 | 1013.8 |
| 20260901183948 | 75 | 230 | 3.0 | 0.0 | 0.00 | 0.13 | 0.00 | 48 | 1014.0 |
| 20260901181755 | 72 | 0 | 0.0 | 0.0 | 0.00 | 0.14 | 0.00 | 45 | 1014.1 |
| 20260901175644 | 72 | 0 | 0.0 | 1.0 | 0.00 | 0.15 | 0.00 | 46 | 1014.4 |
| 20260901174624 | 72 | 0 | 0.0 | 0.0 | 0.00 | 0.17 | 0.00 | 48 | 1014.6 |
| 20260901173611 | 72 | 0 | 0.0 | 0.0 | 0.00 | 0.17 | 0.00 | 52 | 1014.6 |
| 20260901170309 | 71 | 13 | 0.0 | 0.0 | 0.00 | 0.17 | 0.00 | 53 | 1014.9 |
| 20260901165237 | 71 | 13 | 0.0 | 4.0 | 0.00 | 0.17 | 0.00 | 59 | 1014.9 |
| 20260901164243 | 70 | 9 | 0.0 | 2.0 | 0.00 | 0.17 | 0.00 | 55 | 1014.8 |
| 20260901163236 | 70 | 9 | 0.0 | 0.0 | 0.00 | 0.17 | 0.00 | 52 | 1014.8 |
| 20260901162220 | 70 | 9 | 0.0 | 1.0 | 0.00 | 0.17 | 0.00 | 53 | 1014.8 |
| 20260901161217 | 69 | 9 | 0.0 | 0.0 | 0.00 | 0.17 | 0.00 | 59 | 1014.7 |
| 20260901160214 | 68 | 5 | 0.0 | 0.0 | 0.00 | 0.17 | 0.00 | 59 | 1014.8 |
| 20260901155204 | 68 | 9 | 0.0 | 2.0 | 0.00 | 0.17 | 0.00 | 59 | 1014.7 |
| 20260901154220 | 67 | 9 | 0.0 | 0.0 | 0.00 | 0.17 | 0.00 | 58 | 1014.8 |
| 20260901153245 | 67 | 9 | 0.0 | 0.0 | 0.00 | 0.17 | 0.00 | 58 | 1014.9 |
| 20260901152250 | 67 | 9 | 0.0 | 0.0 | 0.00 | 0.17 | 0.00 | 58 | 1015.0 |
| 20260901151219 | 66 | 9 | 0.0 | 0.0 | 0.00 | 0.17 | 0.00 | 62 | 1015.0 |
| 20260901145046 | 63 | 9 | 0.0 | 0.0 | 0.00 | 0.17 | 0.00 | 69 | 1015.0 |
| 20260901144056 | 62 | 9 | 0.0 | 0.0 | 0.00 | 0.17 | 0.00 | 71 | 1015.1 |
| 20260901143030 | 60 | 9 | 0.0 | 0.0 | 0.00 | 0.17 | 0.00 | 73 | 1015.2 |
| 20260901142017 | 59 | 9 | 0.0 | 0.0 | 0.00 | 0.17 | 0.00 | 74 | 1015.3 |
| 20260901141003 | 58 | 5 | 0.0 | 0.0 | 0.00 | 0.17 | 0.00 | 77 | 1015.3 |
| 20260901133715 | 54 | 9 | 0.0 | 7.0 | 0.00 | 0.17 | 0.00 | 83 | 1015.2 |
| 20260901132737 | 52 | 9 | 0.0 | 4.0 | 0.00 | 0.17 | 0.00 | 86 | 1015.1 |
| 20260901131710 | 51 | 9 | 0.0 | 0.0 | 0.00 | 0.17 | 0.00 | 88 | 1015.1 |
| 20260901130659 | 50 | 9 | 0.0 | 0.0 | 0.00 | 0.17 | 0.00 | 88 | 1015.0 |
| 20260901124514 | 50 | 9 | 0.0 | 0.0 | 0.00 | 0.17 | 0.00 | 89 | 1014.7 |
| 20260901123539 | 50 | 9 | 0.0 | 0.0 | 0.00 | 0.17 | 0.00 | 89 | 1014.4 |
| 20260901122508 | 50 | 9 | 0.0 | 0.0 | 0.00 | 0.17 | 0.00 | 89 | 1014.3 |
| 20260901120306 | 50 | 9 | 0.0 | 0.0 | 0.00 | 0.17 | 0.00 | 90 | 1014.0 |
| 20260901115315 | 50 | 5 | 0.0 | 0.0 | 0.00 | 0.17 | 0.00 | 89 | 1013.9 |
| 20260901114253 | 50 | 9 | 0.0 | 0.0 | 0.00 | 0.17 | 0.00 | 89 | 1013.9 |
| 20260901112106 | 51 | 9 | 0.0 | 0.0 | 0.00 | 0.17 | 0.00 | 88 | 1013.7 |
| 20260901111100 | 51 | 9 | 0.0 | 0.0 | 0.00 | 0.17 | 0.00 | 87 | 1013.6 |
| 20260901110055 | 52 | 9 | 0.0 | 0.0 | 0.00 | 0.17 | 0.00 | 87 | 1013.6 |
| 20260901105026 | 52 | 9 | 0.0 | 0.0 | 0.00 | 0.17 | 0.00 | 86 | 1013.8 |
| 20260901103952 | 53 | 9 | 0.0 | 0.0 | 0.00 | 0.17 | 0.00 | 85 | 1013.7 |
| 20260901102937 | 53 | 9 | 0.0 | 0.0 | 0.00 | 0.17 | 0.00 | 85 | 1013.6 |
| 20260901101939 | 53 | 9 | 0.0 | 7.0 | 0.00 | 0.17 | 0.00 | 85 | 1013.5 |
| 20260901095814 | 53 | 9 | 0.0 | 0.0 | 0.00 | 0.17 | 0.00 | 86 | 1013.6 |
| 20260901094817 | 53 | 9 | 0.0 | 0.0 | 0.00 | 0.17 | 0.00 | 86 | 1013.6 |
| 20260901093806 | 53 | 9 | 0.0 | 0.0 | 0.00 | 0.17 | 0.00 | 86 | 1013.6 |
| 20260901092827 | 53 | 5 | 0.0 | 0.0 | 0.00 | 0.17 | 0.00 | 87 | 1013.7 |
| 20260901091821 | 53 | 9 | 0.0 | 0.0 | 0.00 | 0.17 | 0.00 | 86 | 1013.6 |
| 20260901090827 | 53 | 9 | 0.0 | 0.0 | 0.00 | 0.17 | 0.00 | 86 | 1013.6 |
| 20260901085816 | 53 | 5 | 0.0 | 0.0 | 0.00 | 0.17 | 0.00 | 86 | 1013.7 |
| 20260901084810 | 54 | 9 | 0.0 | 0.0 | 0.00 | 0.17 | 0.00 | 86 | 1013.8 |
| 20260901083740 | 54 | 5 | 0.0 | 0.0 | 0.00 | 0.17 | 0.00 | 86 | 1013.8 |
| 20260901082738 | 54 | 9 | 0.0 | 0.0 | 0.00 | 0.17 | 0.00 | 86 | 1013.7 |
| 20260901081733 | 54 | 5 | 0.0 | 0.0 | 0.00 | 0.17 | 0.00 | 85 | 1013.9 |
| 20260901080726 | 54 | 9 | 0.0 | 0.0 | 0.00 | 0.17 | 0.00 | 86 | 1013.9 |
| 20260901075742 | 54 | 9 | 0.0 | 4.0 | 0.00 | 0.19 | 0.00 | 86 | 1013.8 |
| 20260901074739 | 55 | 9 | 0.0 | 0.0 | 0.00 | 0.21 | 0.00 | 85 | 1014.0 |
| 20260901073757 | 55 | 9 | 0.0 | 0.0 | 0.00 | 0.21 | 0.00 | 86 | 1014.0 |
| 20260901072731 | 54 | 9 | 0.0 | 0.0 | 0.00 | 0.21 | 0.00 | 87 | 1014.0 |
| 20260901071750 | 54 | 9 | 0.0 | 0.0 | 0.00 | 0.21 | 0.00 | 86 | 1014.0 |
| 20260901070758 | 55 | 9 | 0.0 | 0.0 | 0.00 | 0.21 | 0.00 | 86 | 1013.9 |
| 20260901064702 | 54 | 9 | 0.0 | 3.0 | 0.00 | 0.21 | 0.00 | 86 | 1013.9 |
| 20260901063659 | 55 | 9 | 0.0 | 0.0 | 0.00 | 0.21 | 0.00 | 86 | 1013.9 |
| 20260901062710 | 55 | 9 | 0.0 | 0.0 | 0.00 | 0.21 | 0.00 | 85 | 1014.0 |
| 20260901061707 | 55 | 9 | 0.0 | 0.0 | 0.00 | 0.21 | 0.00 | 86 | 1013.9 |
| 20260901060729 | 55 | 9 | 0.0 | 0.0 | 0.00 | 0.21 | 0.00 | 86 | 1013.8 |
| 20260901055739 | 55 | 9 | 0.0 | 0.0 | 0.00 | 0.21 | 0.21 | 85 | 1013.7 |
| 20260901054731 | 55 | 9 | 4.0 | 0.0 | 0.00 | 0.21 | 0.21 | 86 | 1013.4 |
| 20260901053713 | 55 | 5 | 4.0 | 9.0 | 0.00 | 0.21 | 0.21 | 87 | 1013.1 |
| 20260901052700 | 55 | 355 | 0.0 | 1.0 | 0.00 | 0.21 | 0.21 | 87 | 1013.2 |
| 20260901051638 | 55 | 355 | 0.0 | 0.0 | 0.00 | 0.21 | 0.21 | 88 | 1013.6 |
| 20260901050605 | 55 | 355 | 0.0 | 7.0 | 0.00 | 0.21 | 0.21 | 87 | 1013.6 |
| 20260901045534 | 55 | 355 | 0.0 | 2.0 | 0.00 | 0.21 | 0.21 | 88 | 1013.5 |
| 20260901043346 | 56 | 355 | 0.0 | 0.0 | 0.00 | 0.21 | 0.21 | 87 | 1013.6 |
| 20260901042339 | 55 | 355 | 0.0 | 0.0 | 0.00 | 0.21 | 0.21 | 89 | 1013.6 |
| 20260901041340 | 56 | 355 | 0.0 | 7.0 | 0.00 | 0.21 | 0.21 | 88 | 1013.9 |
| 20260901040347 | 56 | 355 | 0.0 | 0.0 | 0.00 | 0.21 | 0.21 | 89 | 1013.5 |
| 20260901035410 | 56 | 355 | 0.0 | 0.0 | 0.00 | 0.21 | 0.21 | 89 | 1013.6 |
| 20260901034419 | 56 | 355 | 0.0 | 0.0 | 0.00 | 0.21 | 0.21 | 89 | 1013.4 |
| 20260901033433 | 56 | 355 | 0.0 | 0.0 | 0.00 | 0.21 | 0.21 | 89 | 1013.2 |
| 20260901032456 | 56 | 355 | 0.0 | 0.0 | 0.00 | 0.21 | 0.21 | 90 | 1013.3 |